Weather History for EGHE - February, 2013

Change the Weather History Date:

Wednesday, February 13, 2013

  Actual Average Record
Temperature  
Mean Temperature 48 °F -  
Max Temperature 52 °F 47 °F 50 °F (2015)
Min Temperature 45 °F 45 °F 37 °F (2014)
Degree Days  
Heating Degree Days 16    
Moisture  
Dew Point 50 °F    
Average Humidity 97    
Maximum Humidity 100    
Minimum Humidity 92    
Precipitation  
Precipitation 0.08 in - - ()
Sea Level Pressure  
Sea Level Pressure 30.01 in    
Wind  
Wind Speed 16 mph ()    
Max Wind Speed 29 mph    
Max Gust Speed -    
Visibility 3.6 miles    
Events Fog , Rain    
Averages and records for this station are not official NWS values.
T = Trace of Precipitation, MM = Missing Value Source: Averaged Metar Reports

Daily Weather History Graph

Daily Weather History Graph

Search for Another Location

Airport or City:

Trip Planner

Search our weather history database for the weather conditions in past years. The results will help you decide how hot, cold, wet, or windy it might be!

Date:

Astronomy

Feb. 13, 2013 Rise Set
Actual Time 7:38 AM GMT 5:40 PM GMT
Civil Twilight 7:05 AM GMT 6:14 PM GMT
Nautical Twilight 6:27 AM GMT 6:51 PM GMT
Astronomical Twilight 5:50 AM GMT 7:29 PM GMT
Moon 8:35 AM GMT (2/13) 9:58 PM GMT (2/13)
Length of Visible Light 11h 08m
Length of Day
10h 01m
Waxing Crescent, 12% of the Moon is Illuminated
Feb 13
Waxing Crescent
Feb 17
First Quarter
Feb 25
Full
Mar 4
Last Quarter
Mar 11
New

Hourly Weather History & Observations

Time (GMT) Temp. Dew Point Humidity Pressure Visibility Wind Dir Wind Speed Gust Speed Precip Events Conditions
2:50 AM 45 °F 44 °F 93% 30.04 in 3 mi South 24.2 mph - -   Mist
5:50 AM 47 °F 46 °F 95% 30.01 in 3 mi South 24.2 mph - - Rain Rain
8:20 AM 48.2 °F 48.2 °F 100% 30.01 in 0.7 mi SSW 16.1 mph - N/A   Mostly Cloudy
8:50 AM 50 °F 50 °F 98% 30.01 in 1 mi SW 9.2 mph - - Rain Light Drizzle
8:50 AM 50.0 °F 50.0 °F 100% 30.01 in 0.4 mi SSW 9.2 mph - N/A Fog Fog
9:20 AM 50.0 °F 50.0 °F 100% 30.01 in 0.6 mi West 10.4 mph - N/A Fog Fog
9:50 AM 50.0 °F 50.0 °F 100% 30.01 in 0.5 mi West 11.5 mph - N/A Fog Fog
10:20 AM 50.0 °F 50.0 °F 100% 30.01 in 0.5 mi West 13.8 mph - N/A Fog Fog
10:50 AM 50.0 °F 50.0 °F 100% 30.01 in 0.6 mi West 16.1 mph - N/A Fog Fog
11:20 AM 51.8 °F 50.0 °F 94% 30.04 in 0.4 mi West 16.1 mph - N/A Fog Fog
11:50 AM 51 °F 51 °F 98% 30.04 in 3 mi West 16.1 mph - - Fog Fog
11:50 AM 51.8 °F 50.0 °F 94% 30.04 in 1.2 mi West 16.1 mph - N/A   Mostly Cloudy
12:20 PM 51.8 °F 50.0 °F 94% 30.04 in 6.2 mi West 18.4 mph - N/A   Mostly Cloudy
1:20 PM 51.8 °F 51.8 °F 100% 30.04 in 6.2 mi West 16.1 mph - N/A   Mostly Cloudy
1:50 PM 51.8 °F 51.8 °F 100% 30.04 in 6.2 mi WSW 16.1 mph - N/A   Mostly Cloudy
2:20 PM 51.8 °F 51.8 °F 100% 30.01 in 6.2 mi West 18.4 mph - N/A   Partly Cloudy
2:50 PM 52 °F 51 °F 95% 30.02 in 6 mi WSW 15.0 mph - -   Mostly Cloudy
2:50 PM 51.8 °F 51.8 °F 100% 30.01 in 6.2 mi WSW 15.0 mph - N/A   Partly Cloudy
3:20 PM 51.8 °F 50.0 °F 94% 30.01 in 6.2 mi WSW 18.4 mph - N/A   Partly Cloudy
3:50 PM 51.8 °F 50.0 °F 94% 30.01 in - WSW 18.4 mph - N/A   Clear
4:20 PM 51.8 °F 50.0 °F 94% 30.01 in - WSW 19.6 mph - N/A   Clear
4:50 PM 51.8 °F 50.0 °F 94% 30.01 in 6.2 mi WSW 18.4 mph - N/A   Partly Cloudy
5:20 PM 50.0 °F 50.0 °F 100% 30.01 in 6.2 mi WSW 21.9 mph - N/A   Partly Cloudy
5:50 PM 51 °F 50 °F 93% 30.01 in 5 mi WSW 23.0 mph - -   Mist
5:50 PM 50.0 °F 50.0 °F 100% 30.01 in 6.2 mi WSW 21.9 mph - N/A   Partly Cloudy
8:50 PM 51 °F 49 °F 92% 29.97 in 6 mi WSW 26.5 mph - -   Mist
11:50 PM 51 °F 50 °F 93% 29.89 in 2 mi SW 28.8 mph - - Rain Light Drizzle